sat.trackr.live / text

‹ back to catalog

FLOCK 4G-25

NORAD 62646 · 2025-009AP

PAYLOAD ACTIVE UNKNOWN

§ Identity

Operator
Country
US
Launch date
2025-01-14
Launch site
AFWTR
Launch vehicle
Mass (kg)
RCS (m²)

Purposes: earth_obs

External: N2YO · Heavens-Above · Gunter

§ Orbital elements

Epoch: 2026-09-19T11:30:42.043392Z

Period
94.05 min
Inclination
97.3956°
Eccentricity
0.0001404
Mean motion
15.31119644 rev/d
Perigee alt
471.5 km
Apogee alt
473.4 km
Semi-major
6,850.6 km
B*
2.3870e-4
RAAN
344.2198°
Arg perigee
22.4193°
Mean anomaly
337.7109°
Rev number
9,334

§ Raw data

FLOCK 4G-251 62646U 25009AP  26262.47965328  .00007099  00000+0  23870-3 0  99992 62646  97.3956 344.2198 0001404  22.4193 337.7109 15.31119644 93340

JSON: /api/v1/satellites/62646 · /tle

For live sub-satellite position, see the globe view (requires WebGL).

§ Visibility from observer

Set your observer location to see the next 7 days of passes ≥ 10°. The values pass through the URL so the page stays shareable.

No JS? Fill the form by hand. The geolocation button needs JavaScript.